Location: *
(46.1833°N, 22.7667°E)
Time: 09:10:38
(UTC+00:00)

Terra - Pass Details

Date: 17 September 2019
Orbit: 701 x 703 km, 98.2° (Epoch: 15 October)

Event Time Altitude Azimuth Distance (km) Brightness Sun altitude
Exits shadow 21:02:04 18° 326° (NW) 1,687 4.3 -38.5°
Drops below altitude 10° 21:03:26 10° 334° (NNW) 2,181 5.1 -38.6°
Sets 21:05:48 0° 341° (NNW) 3,103 6.1 -38.8°
